Year,Month,Day,Hour,Minute,Value (Times are PST for temperature in C)
2020,07,02,00,00,10.00
2020,07,02,00,01,10.00
2020,07,02,00,02,10.00
2020,07,02,00,03,10.00
2020,07,02,00,04,10.00
2020,07,02,00,05,10.00
2020,07,02,00,06,10.00
2020,07,02,00,07,10.00
2020,07,02,00,08,10.00
2020,07,02,00,09,10.00
2020,07,02,00,10,10.00
2020,07,02,00,11,10.00
2020,07,02,00,12,10.00
2020,07,02,00,13,10.00
2020,07,02,00,14,10.00
2020,07,02,00,15,10.00
2020,07,02,00,16,10.00
2020,07,02,00,17,10.00
2020,07,02,00,18,9.90
2020,07,02,00,19,9.90
2020,07,02,00,20,9.90
2020,07,02,00,21,9.90
2020,07,02,00,22,9.90
2020,07,02,00,23,9.90
2020,07,02,00,24,9.90
2020,07,02,00,25,9.90
2020,07,02,00,26,9.90
2020,07,02,00,27,9.80
2020,07,02,00,28,9.80
2020,07,02,00,29,9.80
2020,07,02,00,30,9.80
2020,07,02,00,31,9.80
2020,07,02,00,32,9.90
2020,07,02,00,33,9.90
2020,07,02,00,34,9.90
2020,07,02,00,35,9.90
2020,07,02,00,36,9.90
2020,07,02,00,37,9.90
2020,07,02,00,38,9.90
2020,07,02,00,39,9.90
2020,07,02,00,40,9.90
2020,07,02,00,41,9.90
2020,07,02,00,42,9.90
2020,07,02,00,43,9.90
2020,07,02,00,44,9.90
2020,07,02,00,45,9.80
2020,07,02,00,46,9.80
2020,07,02,00,47,9.80
2020,07,02,00,48,9.80
2020,07,02,00,49,9.80
2020,07,02,00,50,9.80
2020,07,02,00,51,9.70
2020,07,02,00,52,9.70
2020,07,02,00,53,9.70
2020,07,02,00,54,9.70
2020,07,02,00,55,9.70
2020,07,02,00,56,9.70
2020,07,02,00,57,9.70
2020,07,02,00,58,9.70
2020,07,02,00,59,9.70
2020,07,02,01,00,9.70
2020,07,02,01,01,9.70
2020,07,02,01,02,9.70
2020,07,02,01,03,9.70
2020,07,02,01,04,9.70
2020,07,02,01,05,9.70
2020,07,02,01,06,9.70
2020,07,02,01,07,9.70
2020,07,02,01,08,9.60
2020,07,02,01,09,9.60
2020,07,02,01,10,9.60
2020,07,02,01,11,9.60
2020,07,02,01,12,9.60
2020,07,02,01,13,9.50
2020,07,02,01,14,9.50
2020,07,02,01,15,9.50
2020,07,02,01,16,9.50
2020,07,02,01,17,9.50
2020,07,02,01,18,9.50
2020,07,02,01,19,9.50
2020,07,02,01,20,9.50
2020,07,02,01,21,9.50
2020,07,02,01,22,9.50
2020,07,02,01,23,9.60
2020,07,02,01,24,9.50
2020,07,02,01,25,9.50
2020,07,02,01,26,9.50
2020,07,02,01,27,9.50
2020,07,02,01,28,9.50
2020,07,02,01,29,9.50
2020,07,02,01,30,9.50
2020,07,02,01,31,9.40
2020,07,02,01,32,9.50
2020,07,02,01,33,9.50
2020,07,02,01,34,9.50
2020,07,02,01,35,9.50
2020,07,02,01,36,9.50
2020,07,02,01,37,9.40
2020,07,02,01,38,9.40
2020,07,02,01,39,9.40
2020,07,02,01,40,9.40
2020,07,02,01,41,9.40
2020,07,02,01,42,9.40
2020,07,02,01,43,9.40
2020,07,02,01,44,9.40
2020,07,02,01,45,9.40
2020,07,02,01,46,9.40
2020,07,02,01,47,9.30
2020,07,02,01,48,9.30
2020,07,02,01,49,9.30
2020,07,02,01,50,9.30
2020,07,02,01,51,9.30
2020,07,02,01,52,9.30
2020,07,02,01,53,9.30
2020,07,02,01,54,9.30
2020,07,02,01,55,9.30
2020,07,02,01,56,9.30
2020,07,02,01,57,9.30
2020,07,02,01,58,9.30
2020,07,02,01,59,9.30
2020,07,02,02,00,9.30
2020,07,02,02,01,9.30
2020,07,02,02,02,9.30
2020,07,02,02,03,9.30
2020,07,02,02,04,9.30
2020,07,02,02,05,9.30
2020,07,02,02,06,9.30
2020,07,02,02,07,9.30
2020,07,02,02,08,9.30
2020,07,02,02,09,9.30
2020,07,02,02,10,9.30
2020,07,02,02,11,9.30
2020,07,02,02,12,9.20
2020,07,02,02,13,9.20
2020,07,02,02,14,9.20
2020,07,02,02,15,9.20
2020,07,02,02,16,9.20
2020,07,02,02,17,9.10
2020,07,02,02,18,9.10
2020,07,02,02,19,9.10
2020,07,02,02,20,9.10
2020,07,02,02,21,9.10
2020,07,02,02,22,9.10
2020,07,02,02,23,9.10
2020,07,02,02,24,9.10
2020,07,02,02,25,9.10
2020,07,02,02,26,9.10
2020,07,02,02,27,9.10
2020,07,02,02,28,9.10
2020,07,02,02,29,9.10
2020,07,02,02,30,9.10
2020,07,02,02,31,9.10
2020,07,02,02,32,9.10
2020,07,02,02,33,9.10
2020,07,02,02,34,9.10
2020,07,02,02,35,9.10
2020,07,02,02,36,9.10
2020,07,02,02,37,9.10
2020,07,02,02,38,9.10
2020,07,02,02,39,9.10
2020,07,02,02,40,9.10
2020,07,02,02,41,9.10
2020,07,02,02,42,9.10
2020,07,02,02,43,9.00
2020,07,02,02,44,9.10
2020,07,02,02,45,9.10
2020,07,02,02,46,9.10
2020,07,02,02,47,9.10
2020,07,02,02,48,9.10
2020,07,02,02,49,9.10
2020,07,02,02,50,9.10
2020,07,02,02,51,9.10
2020,07,02,02,52,9.10
2020,07,02,02,53,9.10
2020,07,02,02,54,9.20
2020,07,02,02,55,9.10
2020,07,02,02,56,9.10
2020,07,02,02,57,9.10
2020,07,02,02,58,9.10
2020,07,02,02,59,9.10
2020,07,02,03,00,9.10
2020,07,02,03,01,9.00
2020,07,02,03,02,9.00
2020,07,02,03,03,9.00
2020,07,02,03,04,9.00
2020,07,02,03,05,9.00
2020,07,02,03,06,9.00
2020,07,02,03,07,9.00
2020,07,02,03,08,8.90
2020,07,02,03,09,8.90
2020,07,02,03,10,8.90
2020,07,02,03,11,8.90
2020,07,02,03,12,8.90
2020,07,02,03,13,8.90
2020,07,02,03,14,8.90
2020,07,02,03,15,8.90
2020,07,02,03,16,8.90
2020,07,02,03,17,9.00
2020,07,02,03,18,8.90
2020,07,02,03,19,8.90
2020,07,02,03,20,8.90
2020,07,02,03,21,8.90
2020,07,02,03,22,8.90
2020,07,02,03,23,8.90
2020,07,02,03,24,8.90
2020,07,02,03,25,8.90
2020,07,02,03,26,8.90
2020,07,02,03,27,8.90
2020,07,02,03,28,8.90
2020,07,02,03,29,8.90
2020,07,02,03,30,8.90
2020,07,02,03,31,8.90
2020,07,02,03,32,8.90
2020,07,02,03,33,8.90
2020,07,02,03,34,8.90
2020,07,02,03,35,8.90
2020,07,02,03,36,8.90
2020,07,02,03,37,8.90
2020,07,02,03,38,8.90
2020,07,02,03,39,8.90
2020,07,02,03,40,8.90
2020,07,02,03,41,8.90
2020,07,02,03,42,8.90
2020,07,02,03,43,8.90
2020,07,02,03,44,8.90
2020,07,02,03,45,8.90
2020,07,02,03,46,8.90
2020,07,02,03,47,9.00
2020,07,02,03,48,9.00
2020,07,02,03,49,9.00
2020,07,02,03,50,9.00
2020,07,02,03,51,9.00
2020,07,02,03,52,9.00
2020,07,02,03,53,9.00
2020,07,02,03,54,9.00
2020,07,02,03,55,9.00
2020,07,02,03,56,9.00
2020,07,02,03,57,9.00
2020,07,02,03,58,9.00
2020,07,02,03,59,9.00
2020,07,02,04,00,9.00
2020,07,02,04,01,9.00
2020,07,02,04,02,9.00
2020,07,02,04,03,9.00
2020,07,02,04,04,9.00
2020,07,02,04,05,9.10
2020,07,02,04,06,9.10
2020,07,02,04,07,9.10
2020,07,02,04,08,9.10
2020,07,02,04,09,9.00
2020,07,02,04,10,9.00
2020,07,02,04,11,9.00
2020,07,02,04,12,9.00
2020,07,02,04,13,9.00
2020,07,02,04,14,8.90
2020,07,02,04,15,8.90
2020,07,02,04,16,8.90
2020,07,02,04,17,8.90
2020,07,02,04,18,8.90
2020,07,02,04,19,8.90
2020,07,02,04,20,8.90
2020,07,02,04,21,8.90
2020,07,02,04,22,8.90
2020,07,02,04,23,8.90
2020,07,02,04,24,8.90
2020,07,02,04,25,8.90
2020,07,02,04,26,8.90
2020,07,02,04,27,8.90
2020,07,02,04,28,8.90
2020,07,02,04,29,8.80
2020,07,02,04,30,8.80
2020,07,02,04,31,8.80
2020,07,02,04,32,8.80
2020,07,02,04,33,8.80
2020,07,02,04,34,8.80
2020,07,02,04,35,8.80
2020,07,02,04,36,8.80
2020,07,02,04,37,8.80
2020,07,02,04,38,8.80
2020,07,02,04,39,8.90
2020,07,02,04,40,8.90
2020,07,02,04,41,8.90
2020,07,02,04,42,8.90
2020,07,02,04,43,8.90
2020,07,02,04,44,8.90
2020,07,02,04,45,8.90
2020,07,02,04,46,8.90
2020,07,02,04,47,8.90
2020,07,02,04,48,8.90
2020,07,02,04,49,8.90
2020,07,02,04,50,8.90
2020,07,02,04,51,9.00
2020,07,02,04,52,9.00
2020,07,02,04,53,8.90
2020,07,02,04,54,8.90
2020,07,02,04,55,8.90
2020,07,02,04,56,8.90
2020,07,02,04,57,8.90
2020,07,02,04,58,8.90
2020,07,02,04,59,8.90
2020,07,02,05,00,8.90
2020,07,02,05,01,8.90
2020,07,02,05,02,8.90
2020,07,02,05,03,8.90
2020,07,02,05,04,8.90
2020,07,02,05,05,8.90
2020,07,02,05,06,8.90
2020,07,02,05,07,8.90
2020,07,02,05,08,8.90
2020,07,02,05,09,9.00
2020,07,02,05,10,9.00
2020,07,02,05,11,9.00
2020,07,02,05,12,9.00
2020,07,02,05,13,9.00
2020,07,02,05,14,9.00
2020,07,02,05,15,9.00
2020,07,02,05,16,9.00
2020,07,02,05,17,9.00
2020,07,02,05,18,9.00
2020,07,02,05,19,9.00
2020,07,02,05,20,9.00
2020,07,02,05,21,9.00
2020,07,02,05,22,8.90
2020,07,02,05,23,8.90
2020,07,02,05,24,8.90
2020,07,02,05,25,8.90
2020,07,02,05,26,8.90
2020,07,02,05,27,8.90
2020,07,02,05,28,8.90
2020,07,02,05,29,8.90
2020,07,02,05,30,8.90
2020,07,02,05,31,8.90
2020,07,02,05,32,8.90
2020,07,02,05,33,8.90
2020,07,02,05,34,8.90
2020,07,02,05,35,9.00
2020,07,02,05,36,9.00
2020,07,02,05,37,9.00
2020,07,02,05,38,9.00
2020,07,02,05,39,9.00
2020,07,02,05,40,9.00
2020,07,02,05,41,9.00
2020,07,02,05,42,9.00
2020,07,02,05,43,9.00
2020,07,02,05,44,9.00
2020,07,02,05,45,9.00
2020,07,02,05,46,9.00
2020,07,02,05,47,9.00
2020,07,02,05,48,9.00
2020,07,02,05,49,9.00
2020,07,02,05,50,9.00
2020,07,02,05,51,9.00
2020,07,02,05,52,9.00
2020,07,02,05,53,9.00
2020,07,02,05,54,9.00
2020,07,02,05,55,9.00
2020,07,02,05,56,9.00
2020,07,02,05,57,9.00
2020,07,02,05,58,9.00
2020,07,02,05,59,9.00
2020,07,02,06,00,9.00
2020,07,02,06,01,9.00
2020,07,02,06,02,9.00
2020,07,02,06,03,9.00
2020,07,02,06,04,9.00
2020,07,02,06,05,9.00
2020,07,02,06,06,9.00
2020,07,02,06,07,9.00
2020,07,02,06,08,9.00
2020,07,02,06,09,9.00
2020,07,02,06,10,9.10
2020,07,02,06,11,9.10
2020,07,02,06,12,9.10
2020,07,02,06,13,9.10
2020,07,02,06,14,9.10
2020,07,02,06,15,9.10
2020,07,02,06,16,9.10
2020,07,02,06,17,9.10
2020,07,02,06,18,9.10
2020,07,02,06,19,9.10
2020,07,02,06,20,9.10
2020,07,02,06,21,9.20
2020,07,02,06,22,9.20
2020,07,02,06,23,9.20
2020,07,02,06,24,9.20
2020,07,02,06,25,9.20
2020,07,02,06,26,9.20
2020,07,02,06,27,9.20
2020,07,02,06,28,9.20
2020,07,02,06,29,9.20
2020,07,02,06,30,9.20
2020,07,02,06,31,9.20
2020,07,02,06,32,9.20
2020,07,02,06,33,9.20
2020,07,02,06,34,9.20
2020,07,02,06,35,9.20
2020,07,02,06,36,9.20
2020,07,02,06,37,9.20
2020,07,02,06,38,9.20
2020,07,02,06,39,9.30
2020,07,02,06,40,9.30
2020,07,02,06,41,9.30
2020,07,02,06,42,9.30
2020,07,02,06,43,9.30
2020,07,02,06,44,9.30
2020,07,02,06,45,9.30
2020,07,02,06,46,9.30
2020,07,02,06,47,9.30
2020,07,02,06,48,9.30
2020,07,02,06,49,9.30
2020,07,02,06,50,9.40
2020,07,02,06,51,9.40
2020,07,02,06,52,9.40
2020,07,02,06,53,9.40
2020,07,02,06,54,9.50
2020,07,02,06,55,9.50
2020,07,02,06,56,9.60
2020,07,02,06,57,9.60
2020,07,02,06,58,9.60
2020,07,02,06,59,9.60
2020,07,02,07,00,9.70
2020,07,02,07,01,9.70
2020,07,02,07,02,9.70
2020,07,02,07,03,9.70
2020,07,02,07,04,9.70
2020,07,02,07,05,9.80
2020,07,02,07,06,9.80
2020,07,02,07,07,9.80
2020,07,02,07,08,9.80
2020,07,02,07,09,9.80
2020,07,02,07,10,9.80
2020,07,02,07,11,9.90
2020,07,02,07,12,9.90
2020,07,02,07,13,9.90
2020,07,02,07,14,9.90
2020,07,02,07,15,9.90
2020,07,02,07,16,10.00
2020,07,02,07,17,10.10
2020,07,02,07,18,10.10
2020,07,02,07,19,10.20
2020,07,02,07,20,10.20
2020,07,02,07,21,10.20
2020,07,02,07,22,10.30
2020,07,02,07,23,10.30
2020,07,02,07,24,10.30
2020,07,02,07,25,10.30
2020,07,02,07,26,10.30
2020,07,02,07,27,10.30
2020,07,02,07,28,10.30
2020,07,02,07,29,10.20
2020,07,02,07,30,10.20
2020,07,02,07,31,10.20
2020,07,02,07,32,10.20
2020,07,02,07,33,10.20
2020,07,02,07,34,10.20
2020,07,02,07,35,10.20
2020,07,02,07,36,10.20
2020,07,02,07,37,10.10
2020,07,02,07,38,10.10
2020,07,02,07,39,10.10
2020,07,02,07,40,10.10
2020,07,02,07,41,10.10
2020,07,02,07,42,10.10
2020,07,02,07,43,10.20
2020,07,02,07,44,10.20
2020,07,02,07,45,10.20
2020,07,02,07,46,10.20
2020,07,02,07,47,10.20
2020,07,02,07,48,10.20
2020,07,02,07,49,10.20
2020,07,02,07,50,10.20
2020,07,02,07,51,10.20
2020,07,02,07,52,10.30
2020,07,02,07,53,10.30
2020,07,02,07,54,10.30
2020,07,02,07,55,10.30
2020,07,02,07,56,10.30
2020,07,02,07,57,10.30
2020,07,02,07,58,10.40
2020,07,02,07,59,10.40
2020,07,02,08,00,10.40
2020,07,02,08,01,10.40
2020,07,02,08,02,10.40
2020,07,02,08,03,10.50
2020,07,02,08,04,10.50
2020,07,02,08,05,10.50
2020,07,02,08,06,10.60
2020,07,02,08,07,10.60
2020,07,02,08,08,10.60
2020,07,02,08,09,10.60
2020,07,02,08,10,10.70
2020,07,02,08,11,10.70
2020,07,02,08,12,10.70
2020,07,02,08,13,10.70
2020,07,02,08,14,10.80
2020,07,02,08,15,10.80
2020,07,02,08,16,10.90
2020,07,02,08,17,11.00
2020,07,02,08,18,11.00
2020,07,02,08,19,11.10
2020,07,02,08,20,11.10
2020,07,02,08,21,11.20
2020,07,02,08,22,11.20
2020,07,02,08,23,11.20
2020,07,02,08,24,11.30
2020,07,02,08,25,11.30
2020,07,02,08,26,11.30
2020,07,02,08,27,11.30
2020,07,02,08,28,11.40
2020,07,02,08,29,11.40
2020,07,02,08,30,11.40
2020,07,02,08,31,11.50
2020,07,02,08,32,11.50
2020,07,02,08,33,11.60
2020,07,02,08,34,11.70
2020,07,02,08,35,11.70
2020,07,02,08,36,11.80
2020,07,02,08,37,11.80
2020,07,02,08,38,11.90
2020,07,02,08,39,12.00
2020,07,02,08,40,12.00
2020,07,02,08,41,12.10
2020,07,02,08,42,12.20
2020,07,02,08,43,12.30
2020,07,02,08,44,12.40
2020,07,02,08,45,12.50
2020,07,02,08,46,12.60
2020,07,02,08,47,12.60
2020,07,02,08,48,12.70
2020,07,02,08,49,12.70
2020,07,02,08,50,12.80
2020,07,02,08,51,12.80
2020,07,02,08,52,12.90
2020,07,02,08,53,13.00
2020,07,02,08,54,13.00
2020,07,02,08,55,13.10
2020,07,02,08,56,13.10
2020,07,02,08,57,13.20
2020,07,02,08,58,13.20
2020,07,02,08,59,13.30
2020,07,02,09,00,13.30
2020,07,02,09,01,13.30
2020,07,02,09,02,13.30
2020,07,02,09,03,13.40
2020,07,02,09,04,13.40
2020,07,02,09,05,13.40
2020,07,02,09,06,13.40
2020,07,02,09,07,13.40
2020,07,02,09,08,13.40
2020,07,02,09,09,13.50
2020,07,02,09,10,13.50
2020,07,02,09,11,13.50
2020,07,02,09,12,13.40
2020,07,02,09,13,13.40
2020,07,02,09,14,13.40
2020,07,02,09,15,13.40
2020,07,02,09,16,13.40
2020,07,02,09,17,13.40
2020,07,02,09,18,13.40
2020,07,02,09,19,13.50
2020,07,02,09,20,13.50
2020,07,02,09,21,13.50
2020,07,02,09,22,13.50
2020,07,02,09,23,13.50
2020,07,02,09,24,13.50
2020,07,02,09,25,13.50
2020,07,02,09,26,13.50
2020,07,02,09,27,13.50
2020,07,02,09,28,13.40
2020,07,02,09,29,13.50
2020,07,02,09,30,13.40
2020,07,02,09,31,13.40
2020,07,02,09,32,13.50
2020,07,02,09,33,13.50
2020,07,02,09,34,13.50
2020,07,02,09,35,13.60
2020,07,02,09,36,13.60
2020,07,02,09,37,13.60
2020,07,02,09,38,13.60
2020,07,02,09,39,13.60
2020,07,02,09,40,13.60
2020,07,02,09,41,13.60
2020,07,02,09,42,13.60
2020,07,02,09,43,13.60
2020,07,02,09,44,13.60
2020,07,02,09,45,13.60
2020,07,02,09,46,13.60
2020,07,02,09,47,13.60
2020,07,02,09,48,13.60
2020,07,02,09,49,13.60
2020,07,02,09,50,13.70
2020,07,02,09,51,13.70
2020,07,02,09,52,13.70
2020,07,02,09,53,13.70
2020,07,02,09,54,13.70
2020,07,02,09,55,13.80
2020,07,02,09,56,13.80
2020,07,02,09,57,13.80
2020,07,02,09,58,13.90
2020,07,02,09,59,13.90
2020,07,02,10,00,14.00
2020,07,02,10,01,14.00
2020,07,02,10,02,14.10
2020,07,02,10,03,14.10
2020,07,02,10,04,14.10
2020,07,02,10,05,14.10
2020,07,02,10,06,14.10
2020,07,02,10,07,14.10
2020,07,02,10,08,14.10
2020,07,02,10,09,14.10
2020,07,02,10,10,14.10
2020,07,02,10,11,14.10
2020,07,02,10,12,14.20
2020,07,02,10,13,14.20
2020,07,02,10,14,14.20
2020,07,02,10,15,14.30
2020,07,02,10,16,14.30
2020,07,02,10,17,14.30
2020,07,02,10,18,14.30
2020,07,02,10,19,14.30
2020,07,02,10,20,14.30
2020,07,02,10,21,14.30
2020,07,02,10,22,14.30
2020,07,02,10,23,14.40
2020,07,02,10,24,14.40
2020,07,02,10,25,14.40
2020,07,02,10,26,14.40
2020,07,02,10,27,14.40
2020,07,02,10,28,14.50
2020,07,02,10,29,14.50
2020,07,02,10,30,14.60
2020,07,02,10,31,14.70
2020,07,02,10,32,14.80
2020,07,02,10,33,14.90
2020,07,02,10,34,15.00
2020,07,02,10,35,15.10
2020,07,02,10,36,15.10
2020,07,02,10,37,15.10
2020,07,02,10,38,15.20
2020,07,02,10,39,15.20
2020,07,02,10,40,15.20
2020,07,02,10,41,15.20
2020,07,02,10,42,15.20
2020,07,02,10,43,15.20
2020,07,02,10,44,15.30
2020,07,02,10,45,15.30
2020,07,02,10,46,15.30
2020,07,02,10,47,15.30
2020,07,02,10,48,15.30
2020,07,02,10,49,15.30
2020,07,02,10,50,15.20
2020,07,02,10,51,15.20
2020,07,02,10,52,15.20
2020,07,02,10,53,15.20
2020,07,02,10,54,15.20
2020,07,02,10,55,15.20
2020,07,02,10,56,15.20
2020,07,02,10,57,15.20
2020,07,02,10,58,15.30
2020,07,02,10,59,15.30
2020,07,02,11,00,15.30
2020,07,02,11,01,15.30
2020,07,02,11,02,15.30
2020,07,02,11,03,15.30
2020,07,02,11,04,15.40
2020,07,02,11,05,15.40
2020,07,02,11,06,15.40
2020,07,02,11,07,15.40
2020,07,02,11,08,15.40
2020,07,02,11,09,15.40
2020,07,02,11,10,15.40
2020,07,02,11,11,15.40
2020,07,02,11,12,15.40
2020,07,02,11,13,15.40
2020,07,02,11,14,15.40
2020,07,02,11,15,15.40
2020,07,02,11,16,15.40
2020,07,02,11,17,15.50
2020,07,02,11,18,15.50
2020,07,02,11,19,15.60
2020,07,02,11,20,15.60
2020,07,02,11,21,15.60
2020,07,02,11,22,15.70
2020,07,02,11,23,15.70
2020,07,02,11,24,15.70
2020,07,02,11,25,15.70
2020,07,02,11,26,15.70
2020,07,02,11,27,15.70
2020,07,02,11,28,15.80
2020,07,02,11,29,15.80
2020,07,02,11,30,15.80
2020,07,02,11,31,15.70
2020,07,02,11,32,15.70
2020,07,02,11,33,15.70
2020,07,02,11,34,15.70
2020,07,02,11,35,15.70
2020,07,02,11,36,15.80
2020,07,02,11,37,15.80
2020,07,02,11,38,15.90
2020,07,02,11,39,15.90
2020,07,02,11,40,15.90
2020,07,02,11,41,15.90
2020,07,02,11,42,15.90
2020,07,02,11,43,15.90
2020,07,02,11,44,15.90
2020,07,02,11,45,15.90
2020,07,02,11,46,15.90
2020,07,02,11,47,15.90
2020,07,02,11,48,15.90
2020,07,02,11,49,16.00
2020,07,02,11,50,16.00
2020,07,02,11,51,16.10
2020,07,02,11,52,16.10
2020,07,02,11,53,16.10
2020,07,02,11,54,16.00
2020,07,02,11,55,16.00
2020,07,02,11,56,16.00
2020,07,02,11,57,16.10
2020,07,02,11,58,16.10
2020,07,02,11,59,16.10
2020,07,02,12,00,16.20
2020,07,02,12,01,16.30
2020,07,02,12,02,16.30
2020,07,02,12,03,16.30
2020,07,02,12,04,16.30
2020,07,02,12,05,16.30
2020,07,02,12,06,16.30
2020,07,02,12,07,16.30
2020,07,02,12,08,16.40
2020,07,02,12,09,16.40
2020,07,02,12,10,16.50
2020,07,02,12,11,16.60
2020,07,02,12,12,16.60
2020,07,02,12,13,16.70
2020,07,02,12,14,16.70
2020,07,02,12,15,16.70
2020,07,02,12,16,16.70
2020,07,02,12,17,16.80
2020,07,02,12,18,16.80
2020,07,02,12,19,16.80
2020,07,02,12,20,16.80
2020,07,02,12,21,16.80
2020,07,02,12,22,16.80
2020,07,02,12,23,16.80
2020,07,02,12,24,16.70
2020,07,02,12,25,16.70
2020,07,02,12,26,16.70
2020,07,02,12,27,16.70
2020,07,02,12,28,16.70
2020,07,02,12,29,16.60
2020,07,02,12,30,16.60
2020,07,02,12,31,16.60
2020,07,02,12,32,16.70
2020,07,02,12,33,16.70
2020,07,02,12,34,16.70
2020,07,02,12,35,16.70
2020,07,02,12,36,16.70
2020,07,02,12,37,16.70
2020,07,02,12,38,16.70
2020,07,02,12,39,16.70
2020,07,02,12,40,16.60
2020,07,02,12,41,16.60
2020,07,02,12,42,16.60
2020,07,02,12,43,16.50
2020,07,02,12,44,16.50
2020,07,02,12,45,16.50
2020,07,02,12,46,16.50
2020,07,02,12,47,16.50
2020,07,02,12,48,16.60
2020,07,02,12,49,16.60
2020,07,02,12,50,16.60
2020,07,02,12,51,16.60
2020,07,02,12,52,16.60
2020,07,02,12,53,16.60
2020,07,02,12,54,16.60
2020,07,02,12,55,16.50
2020,07,02,12,56,16.50
2020,07,02,12,57,16.40
2020,07,02,12,58,16.30
2020,07,02,12,59,16.20
2020,07,02,13,00,16.20
2020,07,02,13,01,16.10
2020,07,02,13,02,16.10
2020,07,02,13,03,16.10
2020,07,02,13,04,16.20
2020,07,02,13,05,16.20
2020,07,02,13,06,16.20
2020,07,02,13,07,16.20
2020,07,02,13,08,16.30
2020,07,02,13,09,16.30
2020,07,02,13,10,16.40
2020,07,02,13,11,16.50
2020,07,02,13,12,16.60
2020,07,02,13,13,16.70
2020,07,02,13,14,16.80
2020,07,02,13,15,17.00
2020,07,02,13,16,17.20
2020,07,02,13,17,17.20
2020,07,02,13,18,17.30
2020,07,02,13,19,17.30
2020,07,02,13,20,17.40
2020,07,02,13,21,17.40
2020,07,02,13,22,17.40
2020,07,02,13,23,17.50
2020,07,02,13,24,17.50
2020,07,02,13,25,17.60
2020,07,02,13,26,17.60
2020,07,02,13,27,17.60
2020,07,02,13,28,17.60
2020,07,02,13,29,17.60
2020,07,02,13,30,17.60
2020,07,02,13,31,17.70
2020,07,02,13,32,17.70
2020,07,02,13,33,17.70
2020,07,02,13,34,17.60
2020,07,02,13,35,17.50
2020,07,02,13,36,17.50
2020,07,02,13,37,17.40
2020,07,02,13,38,17.40
2020,07,02,13,39,17.40
2020,07,02,13,40,17.40
2020,07,02,13,41,17.40
2020,07,02,13,42,17.40
2020,07,02,13,43,17.50
2020,07,02,13,44,17.50
2020,07,02,13,45,17.50
2020,07,02,13,46,17.50
2020,07,02,13,47,17.50
2020,07,02,13,48,17.40
2020,07,02,13,49,17.40
2020,07,02,13,50,17.50
2020,07,02,13,51,17.50
2020,07,02,13,52,17.60
2020,07,02,13,53,17.60
2020,07,02,13,54,17.60
2020,07,02,13,55,17.60
2020,07,02,13,56,17.60
2020,07,02,13,57,17.60
2020,07,02,13,58,17.60
2020,07,02,13,59,17.50
2020,07,02,14,00,17.40
2020,07,02,14,01,17.40
2020,07,02,14,02,17.40
2020,07,02,14,03,17.50
2020,07,02,14,04,17.50
2020,07,02,14,05,17.60
2020,07,02,14,06,17.60
2020,07,02,14,07,17.60
2020,07,02,14,08,17.70
2020,07,02,14,09,17.70
2020,07,02,14,10,17.60
2020,07,02,14,11,17.60
2020,07,02,14,12,17.60
2020,07,02,14,13,17.50
2020,07,02,14,14,17.50
2020,07,02,14,15,17.50
2020,07,02,14,16,17.40
2020,07,02,14,17,17.40
2020,07,02,14,18,17.40
2020,07,02,14,19,17.40
2020,07,02,14,20,17.40
2020,07,02,14,21,17.40
2020,07,02,14,22,17.40
2020,07,02,14,23,17.40
2020,07,02,14,24,17.40
2020,07,02,14,25,17.40
2020,07,02,14,26,17.40
2020,07,02,14,27,17.40
2020,07,02,14,28,17.40
2020,07,02,14,29,17.40
2020,07,02,14,30,17.40
2020,07,02,14,31,17.40
2020,07,02,14,32,17.40
2020,07,02,14,33,17.40
2020,07,02,14,34,17.40
2020,07,02,14,35,17.50
2020,07,02,14,36,17.50
2020,07,02,14,37,17.60
2020,07,02,14,38,17.70
2020,07,02,14,39,17.70
2020,07,02,14,40,17.70
2020,07,02,14,41,17.80
2020,07,02,14,42,17.80
2020,07,02,14,43,17.80
2020,07,02,14,44,17.80
2020,07,02,14,45,17.90
2020,07,02,14,46,17.90
2020,07,02,14,47,17.90
2020,07,02,14,48,17.80
2020,07,02,14,49,17.90
2020,07,02,14,50,17.90
2020,07,02,14,51,17.90
2020,07,02,14,52,17.90
2020,07,02,14,53,17.90
2020,07,02,14,54,17.90
2020,07,02,14,55,17.90
2020,07,02,14,56,17.90
2020,07,02,14,57,17.90
2020,07,02,14,58,17.90
2020,07,02,14,59,17.90
2020,07,02,15,00,17.80
2020,07,02,15,01,17.80
2020,07,02,15,02,17.70
2020,07,02,15,03,17.70
2020,07,02,15,04,17.70
2020,07,02,15,05,17.70
2020,07,02,15,06,17.70
2020,07,02,15,07,17.70
2020,07,02,15,08,17.70
2020,07,02,15,09,17.70
2020,07,02,15,10,17.70
2020,07,02,15,11,17.70
2020,07,02,15,12,17.70
2020,07,02,15,13,17.60
2020,07,02,15,14,17.60
2020,07,02,15,15,17.50
2020,07,02,15,16,17.50
2020,07,02,15,17,17.40
2020,07,02,15,18,17.40
2020,07,02,15,19,17.30
2020,07,02,15,20,17.30
2020,07,02,15,21,17.20
2020,07,02,15,22,17.20
2020,07,02,15,23,17.20
2020,07,02,15,24,17.10
2020,07,02,15,25,17.10
2020,07,02,15,26,17.00
2020,07,02,15,27,17.00
2020,07,02,15,28,16.90
2020,07,02,15,29,16.90
2020,07,02,15,30,16.90
2020,07,02,15,31,16.80
2020,07,02,15,32,16.80
2020,07,02,15,33,16.70
2020,07,02,15,34,16.70
2020,07,02,15,35,16.70
2020,07,02,15,36,16.70
2020,07,02,15,37,16.70
2020,07,02,15,38,16.70
2020,07,02,15,39,16.70
2020,07,02,15,40,16.80
2020,07,02,15,41,16.80
2020,07,02,15,42,16.90
2020,07,02,15,43,17.00
2020,07,02,15,44,17.10
2020,07,02,15,45,17.00
2020,07,02,15,46,17.00
2020,07,02,15,47,16.90
2020,07,02,15,48,16.90
2020,07,02,15,49,16.90
2020,07,02,15,50,16.90
2020,07,02,15,51,16.90
2020,07,02,15,52,16.90
2020,07,02,15,53,16.90
2020,07,02,15,54,16.90
2020,07,02,15,55,16.90
2020,07,02,15,56,16.90
2020,07,02,15,57,17.00
2020,07,02,15,58,17.00
2020,07,02,15,59,17.10
2020,07,02,16,00,17.10
2020,07,02,16,01,17.20
2020,07,02,16,02,17.30
2020,07,02,16,03,17.40
2020,07,02,16,04,17.50
2020,07,02,16,05,17.60
2020,07,02,16,06,17.60
2020,07,02,16,07,17.60
2020,07,02,16,08,17.60
2020,07,02,16,09,17.60
2020,07,02,16,10,17.60
2020,07,02,16,11,17.50
2020,07,02,16,12,17.50
2020,07,02,16,13,17.60
2020,07,02,16,14,17.70
2020,07,02,16,15,17.70
2020,07,02,16,16,17.70
2020,07,02,16,17,17.70
2020,07,02,16,18,17.70
2020,07,02,16,19,17.70
2020,07,02,16,20,17.60
2020,07,02,16,21,17.60
2020,07,02,16,22,17.50
2020,07,02,16,23,17.40
2020,07,02,16,24,17.40
2020,07,02,16,25,17.40
2020,07,02,16,26,17.50
2020,07,02,16,27,17.60
2020,07,02,16,28,17.70
2020,07,02,16,29,17.80
2020,07,02,16,30,17.90
2020,07,02,16,31,17.90
2020,07,02,16,32,17.90
2020,07,02,16,33,17.90
2020,07,02,16,34,18.00
2020,07,02,16,35,18.00
2020,07,02,16,36,18.10
2020,07,02,16,37,18.10
2020,07,02,16,38,18.10
2020,07,02,16,39,18.00
2020,07,02,16,40,17.90
2020,07,02,16,41,17.80
2020,07,02,16,42,17.80
2020,07,02,16,43,17.90
2020,07,02,16,44,17.90
2020,07,02,16,45,17.90
2020,07,02,16,46,17.80
2020,07,02,16,47,17.80
2020,07,02,16,48,17.90
2020,07,02,16,49,17.90
2020,07,02,16,50,18.00
2020,07,02,16,51,18.00
2020,07,02,16,52,18.00
2020,07,02,16,53,18.00
2020,07,02,16,54,18.00
2020,07,02,16,55,17.90
2020,07,02,16,56,17.90
2020,07,02,16,57,17.80
2020,07,02,16,58,17.80
2020,07,02,16,59,17.80
2020,07,02,17,00,17.90
2020,07,02,17,01,18.00
2020,07,02,17,02,18.00
2020,07,02,17,03,18.20
2020,07,02,17,04,18.30
2020,07,02,17,05,18.20
2020,07,02,17,06,18.10
2020,07,02,17,07,18.00
2020,07,02,17,08,17.90
2020,07,02,17,09,17.80
2020,07,02,17,10,17.80
2020,07,02,17,11,17.70
2020,07,02,17,12,17.60
2020,07,02,17,13,17.50
2020,07,02,17,14,17.30
2020,07,02,17,15,17.20
2020,07,02,17,16,17.10
2020,07,02,17,17,17.00
2020,07,02,17,18,16.90
2020,07,02,17,19,16.90
2020,07,02,17,20,16.80
2020,07,02,17,21,16.70
2020,07,02,17,22,16.60
2020,07,02,17,23,16.50
2020,07,02,17,24,16.50
2020,07,02,17,25,16.40
2020,07,02,17,26,16.40
2020,07,02,17,27,16.40
2020,07,02,17,28,16.40
2020,07,02,17,29,16.30
2020,07,02,17,30,16.30
2020,07,02,17,31,16.30
2020,07,02,17,32,16.30
2020,07,02,17,33,16.30
2020,07,02,17,34,16.30
2020,07,02,17,35,16.30
2020,07,02,17,36,16.30
2020,07,02,17,37,16.30